Regional Weather Roundup
Issued by NWS

Home | Current Version | Previous Version | Graphics & Text | Print | Product List | Glossary On
Versions: 1 2 3 4 5 6 7 8 9 10 11 12 13 14 15 16 17 18 19 20 21 22 23 24 25 26 27 28 29 30 31 32 33 34 35 36 37 38 39 40 41 42 43 44 45 46 47 48 49 50
000
ASUS43 KTOP 130808
RWRKS

WEATHER ROUNDUP FOR KANSAS
NATIONAL WEATHER SERVICE GOODLAND KS
200 AM CST WED DEC 13 2017

NOTE:  "FAIR" INDICATES FEW OR NO CLOUDS BELOW 12,000 FEET WITH NO
SIGNIFICANT WEATHER AND/OR OBSTRUCTIONS TO VISIBILITY.

KSZ001>006-013>018-027>032-041>047-130900-
NORTHWEST KANSAS

CITY           SKY/WX    TMP DP  RH WIND       PRES   REMARKS
GOODLAND       CLOUDY    39  16  39 W14       29.95F WCI  31
HAYS           CLEAR     45  17  32 W15       29.86F
HILL CITY      CLEAR     42  20  41 W8        29.86F
RUSSELL        CLEAR     40  20  44 W12       29.83F WCI  33
$$

KSZ061>065-074>080-084>089-130900-
SOUTHWEST KANSAS

CITY           SKY/WX    TMP DP  RH WIND       PRES   REMARKS
DODGE CITY     CLEAR     43  15  32 W15       29.92F
ELKHART        CLOUDY    47  19  32 W16       30.00F
GARDEN CITY    CLOUDY    36  15  42 W12       29.94F WCI  28
GREAT BEND     CLEAR     39  17  41 SW8       29.87F
LIBERAL        CLEAR     34  14  43 W8        29.97F
PRATT          CLEAR     38  15  38 W10       29.88F WCI  31
$$

KSZ066>073-081>083-090>101-130900-
SOUTHEAST KANSAS

CITY           SKY/WX    TMP DP  RH WIND       PRES   REMARKS
CHANUTE        CLEAR     36  27  69 S14       29.92F WCI  27
COFFEYVILLE    CLEAR     36  28  73 S10       29.96F WCI  28
HUTCHINSON     CLOUDY    32  22  66 CALM      29.87F
MEDICINE LODGE   N/A     31  22  69 CALM      29.89F
NEWTON         CLOUDY    36  25  64 SW13      29.87F WCI  27
PARSONS        CLEAR     34  27  75 S6        29.95F
WICHITA INTL   CLEAR     32  25  75 S8        29.89F
WICHITA JABRA  CLEAR     38  27  64 SW12      29.88F WCI  30
WICHITA MCCONL CLEAR     33  25  70 SW7       29.89F
WINFIELD       CLEAR     33  28  81 S8        29.93F
$$

KSZ007>012-019>026-033>040-048>060-102>105-130900-
NORTHEAST KANSAS

CITY           SKY/WX    TMP DP  RH WIND       PRES   REMARKS
CONCORDIA      CLOUDY    41  20  43 SW13      29.77F
EMPORIA        CLEAR     35  26  69 SW8       29.86F
LAWRENCE       CLEAR     38  28  67 CALM      29.84F
MANHATTAN      CLEAR     37  25  61 SW10      29.81F WCI  30
MARYSVILLE     CLEAR     37  23  56 SW12      29.75F WCI  30
OLATHE IND     CLEAR     36  28  73 S17       29.84F WCI  26
OLATHE EXE     CLEAR     32  27  81 S8        29.84F
SALINA         CLEAR     33  21  61 S6        29.83F
TOPEKA BILLARD CLEAR     40  29  64 SW9       29.82F
TOPEKA FORBES  CLEAR     36  28  73 S15       29.81F WCI  27
$$




USA.gov is the U.S. government's official web portal to all federal, state and local government web resources and services.